STARLINK-32203, 60331

Orbit data source: Space-Track

STARLINK-32203, 60331 is a payload satellite owned by SpaceX/Seattle (US) in LEO that was launched on Fri, 02 Aug 2024 UTC via an FALCON 9 launch vehicle from the Air Force Eastern Test Range (AFETR). Payload-class satellites include a variety of spacecraft equipped with specific instruments for various scientific and technological missions. These include communications satellites like Starlink; space stations such as the ISS; scientific satellites like the Hubble; Earth observation satellites from companies like Planet Labs, Umbra, and HawkEye 360; GPS; miniature CubeSats for education and research; and military/defense satellites.

Loading next visibility...
Identifier
60331, 2024-136C
Orbit
LEO
Last TLE update
4 hours ago
Origin
Manufacturer
SpaceX/Seattle
Mission
Operational Commercial Communications
Bus & Motor
STARLINK V2M, Unknown motor
Mass
730 kg wet, ~700 kg dry
Launch date (UTC)
2024-08-02 (11 months ago)
Launch vehicle
FALCON 9
Launch site
Air Force Eastern Test Range (AFETR)
Object type
Payload
Rocket body
Debris
Shape & HBR
Box + 2 Pan, 29 m
Radar Cross Section
33.884 m², Large (>1 m²)

Expand to show TLE details & history

TLE from 4 hours ago
0 STARLINK-32203
1 60331U 24136C   25182.21416309  .00000486  00000-0  28543-4 0  9997
2 60331  53.1587 153.7262 0001150  83.7664 276.3467 15.30196204 52363
Epoch: 2025-07-01T05:08Z
TLE epoch observation values (Epoch: 2025-07-01T05:08:23.69Z)
Latitude
-0.0001°
Longitude
157.11458°
Altitude
476.039 km
Speed
7.629 km/s
True Right ascension
10h 14m 54s
True Declination
0° 00' 00"
Sunlit
Object was in daylight at epoch
Visualization orbit readout
Latitude
-53.29331°
Longitude
64.24682°
Altitude
494.548 km
Speed
7.617 km/s
Apparent Right ascension
06h 49m 33s
Apparent Declination
-53° 12' 06"
Sunlit
Object is in daylight
Visualization observer readout
Local Sidereal Time
21:04:58
Azimuth
131.475° SE
Elevation
-63.552°
Doppler factor
1
Orbital elements
Apogee altitude
476.271 km
Perigee altitude
474.695 km
Semi-major axis
6,853.62 km
Eccentricity
0.00012
Inclination
53.1587°
RAAN
153.7262°
Arg. of periapsis
83.7664°
True anomaly
Unknown
Mean anomaly
276.3467°
Eccentric anomaly
Unknown
Mean motion
3.82528 °/min
Orbital period
94.11 mins
BSTAR
0.000028543
Loading maneuver chart data...
Loading SW <> Apogee altitude chart data...
Loading historical data...
Loading historical data...
Loading historical data...
Loading historical data...
Loading historical data...
Loading historical data...
Loading historical data...

STARLINK-32203 Visibility forecast

Observer location: undefined°, undefined°

Span
Click to sort rows by Start time (UTC) header in descending order
Start Az.
Max El. time (UTC)
Max El. Az.
Max El.
End time (UTC)
End Az.
5 mins2025-07-02 00:06:41.498Z191.154° SSW2025-07-02 00:09:41.498Z118.104° SE27.563°2025-07-02 00:11:41.498Z75.588° E
4 mins2025-07-02 01:45:41.498Z285.663° WNW2025-07-02 01:46:41.498Z311.902° NW27.086°2025-07-02 01:49:41.498Z27.289° NE
4 mins2025-07-02 06:42:41.498Z348.939° N2025-07-02 06:43:41.498Z16.12° NNE27.33°2025-07-02 06:46:41.498Z89.939° E
4 mins2025-07-02 08:20:41.498Z267.412° W2025-07-02 08:21:41.498Z238.737° WSW27.789°2025-07-02 08:24:41.498Z168.019° S
|